Time,TemperatureF,DewpointF,PressureIn,WindDirection,WindDirectionDegrees,WindSpeedMPH,WindSpeedGustMPH,Humidity,HourlyPrecipIn,Conditions,Clouds,dailyrainin,SolarRadiationWatts/m^2,SoftwareType,DateUTC
2013-05-27 00:01:00,44.0,42.0,-100.00,NNW,330,2.0,3.0,93,0.00,,,0.05,0.000000,,2013-05-27 07:01:00,
2013-05-27 00:32:00,43.0,41.0,-100.00,NNW,342,1.0,3.0,91,0.00,,,0.05,0.000000,,2013-05-27 07:32:00,
2013-05-27 00:42:00,43.0,41.0,-100.00,NNW,342,1.0,3.0,91,0.00,,,0.05,0.000000,,2013-05-27 07:42:00,
2013-05-27 00:52:00,43.0,41.0,-100.00,NNW,342,1.0,3.0,91,0.00,,,0.05,0.000000,,2013-05-27 07:52:00,
2013-05-27 01:02:00,43.0,41.0,-100.00,NNW,342,1.0,3.0,91,0.00,,,0.05,0.000000,,2013-05-27 08:02:00,
2013-05-27 01:33:00,43.0,39.0,-100.00,North,349,1.0,3.0,86,0.00,,,0.05,0.000000,,2013-05-27 08:33:00,
2013-05-27 01:42:00,43.0,39.0,-100.00,North,349,1.0,3.0,86,0.00,,,0.05,0.000000,,2013-05-27 08:42:00,
2013-05-27 01:52:00,43.0,39.0,-100.00,North,349,1.0,3.0,86,0.00,,,0.05,0.000000,,2013-05-27 08:52:00,
2013-05-27 02:02:00,43.0,39.0,-100.00,North,349,1.0,3.0,86,0.00,,,0.05,0.000000,,2013-05-27 09:02:00,
2013-05-27 08:33:00,46.0,41.0,-100.00,SW,218,3.0,5.0,81,-99.99,,,-99.99,165.000000,,2013-05-27 15:33:00,
2013-05-27 08:43:00,46.0,41.0,-100.00,SW,218,3.0,5.0,81,-99.99,,,-99.99,165.000000,,2013-05-27 15:43:00,
2013-05-27 08:53:00,46.0,41.0,-100.00,SW,218,3.0,5.0,81,-99.99,,,-99.99,165.000000,,2013-05-27 15:53:00,
2013-05-27 09:02:00,46.0,41.0,-100.00,SW,218,3.0,5.0,81,-99.99,,,-99.99,165.000000,,2013-05-27 16:02:00,
2013-05-27 09:33:00,46.0,40.0,-100.00,SSW,202,3.0,9.0,78,0.00,,,0.04,229.000000,,2013-05-27 16:33:00,
2013-05-27 09:42:00,46.0,40.0,-100.00,SSW,202,3.0,9.0,78,0.00,,,0.04,229.000000,,2013-05-27 16:42:00,
2013-05-27 09:52:00,46.0,40.0,-100.00,SSW,202,3.0,9.0,78,0.00,,,0.04,229.000000,,2013-05-27 16:52:00,
2013-05-27 10:02:00,46.0,40.0,-100.00,SSW,202,3.0,9.0,78,0.00,,,0.04,229.000000,,2013-05-27 17:02:00,
2013-05-27 10:32:00,46.0,41.0,-100.00,SSW,213,3.0,11.0,82,0.00,,,0.04,154.000000,,2013-05-27 17:32:00,
2013-05-27 10:43:00,46.0,41.0,-100.00,SSW,213,3.0,11.0,82,0.00,,,0.04,154.000000,,2013-05-27 17:43:00,
2013-05-27 10:52:00,46.0,41.0,-100.00,SSW,213,3.0,11.0,82,0.00,,,0.04,154.000000,,2013-05-27 17:52:00,
2013-05-27 11:02:00,46.0,41.0,-100.00,SSW,213,3.0,11.0,82,0.00,,,0.04,154.000000,,2013-05-27 18:02:00,
2013-05-27 11:32:00,45.0,40.0,-100.00,South,182,7.0,16.0,82,0.01,,,0.04,207.000000,,2013-05-27 18:32:00,
2013-05-27 11:42:00,45.0,40.0,-100.00,South,182,7.0,16.0,82,0.01,,,0.04,207.000000,,2013-05-27 18:42:00,
2013-05-27 11:52:00,45.0,40.0,-100.00,South,182,7.0,16.0,82,0.01,,,0.04,207.000000,,2013-05-27 18:52:00,
2013-05-27 12:01:00,45.0,40.0,-100.00,South,182,7.0,16.0,82,0.01,,,0.04,207.000000,,2013-05-27 19:01:00,
2013-05-27 12:32:00,45.0,40.0,-100.00,SSE,166,6.0,18.0,83,0.02,,,0.06,313.000000,,2013-05-27 19:32:00,
2013-05-27 12:42:00,45.0,40.0,-100.00,SSE,166,6.0,18.0,83,0.02,,,0.06,313.000000,,2013-05-27 19:42:00,
2013-05-27 12:52:00,45.0,40.0,-100.00,SSE,166,6.0,18.0,83,0.02,,,0.06,313.000000,,2013-05-27 19:52:00,
2013-05-27 13:01:00,45.0,40.0,-100.00,SSE,166,6.0,18.0,83,0.02,,,0.06,313.000000,,2013-05-27 20:01:00,
2013-05-27 13:32:00,45.0,41.0,-100.00,SSE,168,4.0,21.0,87,0.02,,,0.08,203.000000,,2013-05-27 20:32:00,
2013-05-27 13:42:00,45.0,41.0,-100.00,SSE,168,4.0,21.0,87,0.02,,,0.08,203.000000,,2013-05-27 20:42:00,
2013-05-27 13:52:00,45.0,41.0,-100.00,SSE,168,4.0,21.0,87,0.02,,,0.08,203.000000,,2013-05-27 20:52:00,
2013-05-27 14:01:00,45.0,41.0,-100.00,SSE,168,4.0,21.0,87,0.02,,,0.08,203.000000,,2013-05-27 21:01:00,
2013-05-27 14:33:00,45.0,42.0,-100.00,South,179,4.0,12.0,88,0.07,,,0.15,159.000000,,2013-05-27 21:33:00,
2013-05-27 14:43:00,45.0,42.0,-100.00,South,179,4.0,12.0,88,0.07,,,0.15,159.000000,,2013-05-27 21:43:00,
2013-05-27 14:53:00,45.0,42.0,-100.00,South,179,4.0,12.0,88,0.07,,,0.15,159.000000,,2013-05-27 21:53:00,
2013-05-27 15:02:00,45.0,42.0,-100.00,South,179,4.0,12.0,88,0.07,,,0.15,159.000000,,2013-05-27 22:02:00,
2013-05-27 15:33:00,45.0,41.0,-100.00,SSE,161,4.0,14.0,87,0.04,,,0.19,179.000000,,2013-05-27 22:33:00,
2013-05-27 15:42:00,45.0,41.0,-100.00,SSE,161,4.0,14.0,87,0.04,,,0.19,179.000000,,2013-05-27 22:42:00,
2013-05-27 15:53:00,45.0,41.0,-100.00,SSE,161,4.0,14.0,87,0.04,,,0.19,179.000000,,2013-05-27 22:53:00,
2013-05-27 16:02:00,45.0,41.0,-100.00,SSE,161,4.0,14.0,87,0.04,,,0.19,179.000000,,2013-05-27 23:02:00,
2013-05-27 16:32:00,45.0,42.0,-100.00,South,170,4.0,10.0,90,0.05,,,0.22,134.000000,,2013-05-27 23:32:00,
2013-05-27 16:42:00,45.0,42.0,-100.00,South,170,4.0,10.0,90,0.05,,,0.22,134.000000,,2013-05-27 23:42:00,
2013-05-27 16:52:00,45.0,42.0,-100.00,South,170,4.0,10.0,90,0.05,,,0.22,134.000000,,2013-05-27 23:52:00,
2013-05-27 17:01:00,45.0,42.0,-100.00,South,170,4.0,10.0,90,0.05,,,0.22,134.000000,,2013-05-28 00:01:00,
2013-05-27 17:32:00,46.0,44.0,-100.00,SSW,194,3.0,9.0,92,0.02,,,0.23,136.000000,,2013-05-28 00:32:00,
2013-05-27 17:42:00,46.0,44.0,-100.00,SSW,194,3.0,9.0,92,0.02,,,0.23,136.000000,,2013-05-28 00:42:00,
2013-05-27 17:52:00,46.0,44.0,-100.00,SSW,194,3.0,9.0,92,0.02,,,0.23,136.000000,,2013-05-28 00:52:00,
2013-05-27 18:01:00,46.0,44.0,-100.00,SSW,194,3.0,9.0,92,0.02,,,0.23,136.000000,,2013-05-28 01:01:00,
2013-05-27 18:32:00,45.0,43.0,-100.00,SSW,213,3.0,9.0,93,0.00,,,-99.99,74.000000,,2013-05-28 01:32:00,
2013-05-27 18:42:00,45.0,43.0,-100.00,SSW,213,3.0,9.0,93,0.00,,,-99.99,74.000000,,2013-05-28 01:42:00,
2013-05-27 18:52:00,45.0,43.0,-100.00,SSW,213,3.0,9.0,93,0.00,,,-99.99,74.000000,,2013-05-28 01:52:00,
2013-05-27 19:02:00,45.0,43.0,-100.00,SSW,213,3.0,9.0,93,0.00,,,-99.99,74.000000,,2013-05-28 02:02:00,
2013-05-27 19:32:00,46.0,44.0,-100.00,WSW,244,2.0,6.0,91,0.00,,,0.23,60.000000,,2013-05-28 02:32:00,
2013-05-27 19:42:00,46.0,44.0,-100.00,WSW,244,2.0,6.0,91,0.00,,,0.23,60.000000,,2013-05-28 02:42:00,
2013-05-27 19:52:00,46.0,44.0,-100.00,WSW,244,2.0,6.0,91,0.00,,,0.23,60.000000,,2013-05-28 02:52:00,
2013-05-27 20:01:00,46.0,44.0,-100.00,WSW,244,2.0,6.0,91,0.00,,,0.23,60.000000,,2013-05-28 03:01:00,
2013-05-27 20:33:00,46.0,44.0,-100.00,SE,127,0.0,5.0,94,0.00,,,0.23,32.000000,,2013-05-28 03:33:00,
2013-05-27 20:43:00,46.0,44.0,-100.00,SE,127,0.0,5.0,94,0.00,,,0.23,32.000000,,2013-05-28 03:43:00,
2013-05-27 20:53:00,46.0,44.0,-100.00,SE,127,0.0,5.0,94,0.00,,,0.23,32.000000,,2013-05-28 03:53:00,
2013-05-27 21:02:00,46.0,44.0,-100.00,SE,127,0.0,5.0,94,0.00,,,0.23,32.000000,,2013-05-28 04:02:00,
2013-05-27 21:33:00,45.0,44.0,-100.00,West,259,1.0,3.0,97,0.00,,,0.23,4.000000,,2013-05-28 04:33:00,
2013-05-27 21:43:00,45.0,44.0,-100.00,West,259,1.0,3.0,97,0.00,,,0.23,4.000000,,2013-05-28 04:43:00,
2013-05-27 21:52:00,45.0,44.0,-100.00,West,259,1.0,3.0,97,0.00,,,0.23,4.000000,,2013-05-28 04:52:00,
2013-05-27 22:02:00,45.0,44.0,-100.00,West,259,1.0,3.0,97,0.00,,,0.23,4.000000,,2013-05-28 05:02:00,
2013-05-27 22:33:00,45.0,44.0,-100.00,WNW,284,0.0,2.0,98,0.01,,,0.24,0.000000,,2013-05-28 05:33:00,
2013-05-27 22:42:00,45.0,44.0,-100.00,WNW,284,0.0,2.0,98,0.01,,,0.24,0.000000,,2013-05-28 05:42:00,
2013-05-27 22:52:00,45.0,44.0,-100.00,WNW,284,0.0,2.0,98,0.01,,,0.24,0.000000,,2013-05-28 05:52:00,
2013-05-27 23:02:00,45.0,44.0,-100.00,WNW,284,0.0,2.0,98,0.01,,,0.24,0.000000,,2013-05-28 06:02:00,
2013-05-27 23:32:00,45.0,45.0,-100.00,NW,313,0.0,2.0,99,0.00,,,0.24,0.000000,,2013-05-28 06:32:00,
2013-05-27 23:42:00,45.0,45.0,-100.00,NW,313,0.0,2.0,99,0.00,,,0.24,0.000000,,2013-05-28 06:42:00,
2013-05-27 23:52:00,45.0,45.0,-100.00,NW,313,0.0,2.0,99,0.00,,,0.24,0.000000,,2013-05-28 06:52:00,